User: anonymous   Login
Location: Wawayanda State Park
(41.1833°N, 74.4333°W)
Time: 22:44:17
(UTC-04:00)
Language:

RESURS DK-1 - Orbit

View from above orbital plane
View from above orbital plane
View from above satellite
View from above satellite

Ground track
Ground track

The orbit data is extracted from the following two-line orbital elements,

1 29228U 06021A   15142.85690884  .00000879  00000-0  75277-4 0  9999
2 29228 069.9387 221.4594 0002228 023.6241 095.7632 15.01493363494549
Epoch (UTC): 22 May 2015 20:33:56
Eccentricity: 0.0002228
inclination: 69.9387°
perigee height: 561 km
apogee height: 564 km
right ascension of ascending node: 221.4594°
argument of perigee: 23.6241°
revolutions per day: 15.01493363
mean anomaly at epoch: 95.7632°
orbit number at epoch: 49454

The dashed part of the orbit path shows where the satellite is in the earth's shadow,  

DLR